Location: Lewisville
(33.0462°N, 96.9942°W)
Time: 07:29:22
(UTC-05:00)

Tiangong - Pass Details

Date: 07 January 2023
Orbit: 374 x 380 km, 41.5° (Epoch: 29 March)

Event Time Altitude Azimuth Distance (km) Brightness Sun altitude
Exits shadow 04:37:14 - 86° (E) 1,917 2.3 -35.9°
Enters shadow 05:33:53 -67° 293° (WNW) 12,170 5.4 -24.1°
Maximum altitude 06:10:21 60° 211° (SSW) 461 -1.9 -16.7°
